EST,Max TemperatureF,Mean TemperatureF,Min TemperatureF,Max Dew PointF,MeanDew PointF,Min DewpointF,Max Humidity, Mean Humidity, Min Humidity, Max Sea Level PressureIn, Mean Sea Level PressureIn, Min Sea Level PressureIn, Max VisibilityMiles, Mean VisibilityMiles, Min VisibilityMiles, Max Wind SpeedMPH, Mean Wind SpeedMPH, Max Gust SpeedMPH,PrecipitationIn, CloudCover, Events, WindDirDegrees
2013-11-1,70,66,62,64,61,57,94,88,81,29.85,29.68,29.60,10,7,2,30,20,43,0.09,6,Rain,216
2013-11-2,63,58,53,59,54,48,100,87,65,29.71,29.67,29.61,10,7,0,10,5,18,0.09,5,Fog-Rain,251
2013-11-3,55,47,39,46,38,22,86,72,49,30.33,30.04,29.73,10,10,10,21,10,29,0.01,5,,5
2013-11-4,46,40,35,28,26,22,73,57,40,30.69,30.58,30.38,10,10,10,18,11,26,0.00,4,,17
2013-11-5,50,40,30,33,30,26,86,66,48,30.70,30.63,30.54,10,10,10,9,5,,0.00,4,,13
2013-11-6,59,46,34,54,45,30,90,79,62,30.53,30.32,30.11,10,10,10,15,5,,0.00,2,,195
2013-11-7,63,54,46,61,55,35,94,89,66,30.09,29.83,29.71,10,6,2,21,12,28,1.11,8,Rain,250
2013-11-8,50,44,39,34,26,21,58,49,40,30.11,29.95,29.83,10,10,10,20,14,32,0.00,2,,303
2013-11-9,50,42,37,36,26,22,65,51,39,30.22,30.16,30.08,10,10,10,14,10,21,0.00,2,,288
2013-11-10,59,52,46,43,38,31,77,58,46,30.04,29.86,29.74,10,10,4,24,11,34,0.11,6,Rain-Thunderstorm,263
2013-11-11,55,48,43,42,32,26,64,52,38,30.12,30.03,29.91,10,10,10,22,15,40,0.00,3,,274
2013-11-12,55,42,30,43,30,18,93,77,49,30.17,30.04,29.91,10,6,0,24,15,31,0.08,6,Fog-Rain-Snow,333
2013-11-13,37,32,27,20,16,12,66,53,40,30.28,30.23,30.18,10,10,10,17,11,24,0.00,0,,323
2013-11-14,51,44,37,35,29,21,70,53,38,30.20,30.14,30.09,10,10,10,20,10,29,0.00,0,,252
2013-11-15,59,54,48,48,39,26,83,61,38,30.24,30.20,30.17,10,10,10,16,9,25,0.00,0,,240
2013-11-16,59,46,32,44,35,28,100,79,34,30.33,30.30,30.22,10,5,0,9,3,,0.00,1,Fog,252
2013-11-17,60,46,33,58,47,32,100,89,59,30.33,30.20,29.89,10,4,0,17,5,22,0.12,7,Fog-Rain,138
2013-11-18,63,58,52,61,55,35,97,84,49,29.86,29.69,29.61,10,6,0,29,17,39,0.45,5,Fog-Rain,211
2013-11-19,50,43,34,33,23,18,55,45,35,30.27,29.96,29.69,10,10,10,17,13,31,0.00,1,,325
2013-11-20,42,32,23,20,16,12,65,49,32,30.60,30.49,30.30,10,10,10,16,11,23,0.00,0,,352
2013-11-21,48,34,19,34,27,17,92,72,48,30.63,30.55,30.41,10,10,10,8,4,,0.00,0,,321
2013-11-22,55,48,41,54,47,34,100,87,68,30.38,30.10,29.84,10,8,2,15,5,23,0.15,8,Rain,232
2013-11-23,53,44,34,49,26,13,89,50,27,29.89,29.83,29.80,10,10,7,20,12,33,0.00,2,,304
2013-11-24,32,28,24,11,3,-6,49,36,23,30.19,29.96,29.81,10,10,10,30,20,50,0.00,1,,309
2013-11-25,43,32,21,31,9,-3,67,44,21,30.39,30.34,30.22,10,10,10,17,12,29,0.00,1,,276
2013-11-26,50,45,42,47,36,28,93,71,53,30.35,30.25,30.04,10,10,7,14,9,23,0.07,7,Rain,208
2013-11-27,63,52,41,61,53,33,100,92,73,30.00,29.40,29.20,10,4,1,37,19,53,1.82,8,Rain,197
2013-11-28,39,34,28,32,17,8,73,50,37,30.45,30.08,29.56,10,10,10,22,16,30,0.00,2,,296
2013-11-29,37,32,27,16,12,6,54,45,37,30.71,30.57,30.46,10,10,10,12,6,17,0.00,4,,338
2013-11-30,39,31,23,27,19,8,78,61,44,30.76,30.66,30.46,10,10,10,10,7,16,0.00,3,,64